[[{"header":{"parameterUnit":"m.s-1","parameterCategory":1,"la1":30.2991,"la2":30.254,"lo1":-89.0895,"lo2":-89.0444,"dy":0.0017,"dx":0.0017,"nx":28,"ny":28,"refTime":"2026-02-25T03:00:00:Z","depth":0,"parameterNumber":2,"parameterNumberName":"U-component_of_WINDS"},"data":[0,0,0,0,0,0,0,0,0,0,0,0,0,0,0,0,0,0,0,0,0,0,0,0,0,0,0,0,0,0,0,0,0,0,0,0,0,0,0,0,0,0,0,0,0,0,0,0,0,0,0,0,0,0,0,0,0,0,3.6839,3.6841,0,3.7001,3.7002,3.7004,3.7004,3.7002,3.7,3.6998,3.716,3.7166,3.7172,0,0,0,0,0,0,0,0,0,0,0,0,0,3.6526,3.6532,3.6839,3.6841,3.6843,3.7,3.7002,3.7005,3.7004,3.7002,3.6999,3.6997,3.7158,3.7165,3.7173,0,0,0,0,0,0,0,0,0,0,0,0,0,3.6672,3.6533,3.6838,3.6862,3.6865,3.7,3.7003,3.7005,3.7005,3.7001,3.6998,3.6995,3.7155,3.7164,3.7174,3.7295,0,0,3.7203,3.7207,0,0,0,0,0,0,0,0,3.6664,3.6683,3.6856,3.686,3.6865,3.6979,3.6952,3.7102,3.7005,3.6952,3.6997,3.6994,3.7102,3.7116,3.7153,3.7302,3.7309,3.7203,3.7209,3.7213,3.7216,0,0,0,0,0,0,0,3.6653,3.6676,3.6903,3.6859,3.6864,3.6863,3.688,3.698,3.7042,3.6956,3.6956,3.6976,3.7104,3.7144,3.7156,3.7312,3.7203,3.7211,3.7217,3.7221,3.7566,3.757,0,0,0,0,0,0,3.6639,3.6668,3.6898,3.6908,3.6754,3.6871,3.689,3.6945,3.7041,3.7053,3.6978,3.6975,3.7129,3.7145,3.7162,3.7308,3.7213,3.7222,3.7227,3.7563,3.7567,3.7571,0,0,0,0,0,0,3.6632,3.666,3.6891,3.6788,3.6817,3.688,3.6941,3.695,3.699,3.7058,3.7069,3.7008,3.7127,3.7149,3.7261,3.7314,3.7226,3.7235,3.7559,3.7564,3.7569,3.7602,0,0,0,0,0,0,3.6623,3.6657,3.6705,3.6789,3.6823,3.6989,3.6945,3.6956,3.7007,3.7004,3.7089,3.71,3.7126,3.7247,3.7271,3.7325,3.7242,3.7554,3.7561,3.7567,3.7596,3.7607,3.7617,0,0,0,0,0,3.6612,3.6707,3.6707,3.6735,3.6884,3.6992,3.7011,3.7041,3.7011,3.7058,3.7102,3.7097,3.7305,3.7259,3.7285,3.7343,3.7551,3.7559,3.7567,3.7591,3.7605,3.7617,0,0,0,0,0,0,3.6626,3.6719,3.672,3.6845,3.6911,3.6992,3.7052,3.7055,3.7129,3.7124,3.7157,3.7176,3.7287,3.7327,3.7274,3.7464,3.7424,3.7438,3.7434,3.7447,3.7457,3.7444,3.725,0,0,0,0,0,3.6645,3.6726,3.6802,3.6905,3.6938,3.699,3.7038,3.7055,3.7124,3.7151,3.7203,3.7269,3.7349,3.7401,3.7478,3.7603,3.762,3.7655,3.7666,3.7674,3.7684,3.775,3.7766,3.7597,3.7597,3.7597,0,0,3.6682,3.6742,3.6791,3.6909,3.6962,3.7044,3.7013,3.7101,3.7161,3.7164,3.7273,3.7314,3.7389,3.7508,3.7562,3.7544,3.7735,3.7684,3.769,3.7696,3.776,3.7776,3.779,3.7602,3.7601,3.7601,0,0,3.6791,3.6846,3.6937,3.6991,3.7072,3.7105,3.7127,3.7208,3.7235,3.7345,3.7349,3.7421,3.7558,3.7611,3.7656,3.7785,3.7782,3.781,3.7863,3.7927,3.794,3.7952,3.7995,3.8011,3.7821,3.7821,3.7821,0,3.6827,3.6951,3.6983,3.7072,3.7122,3.713,3.7221,3.7271,3.7373,3.7407,3.7386,3.7557,3.7609,3.7738,3.777,3.7807,3.7831,3.7799,3.7936,3.7948,3.796,3.8001,3.8018,3.7823,3.7823,3.7823,3.7822,0,3.6989,3.7076,3.7139,3.7237,3.7296,3.7385,3.7429,3.7484,3.7496,3.7532,3.7643,3.7705,3.7794,3.7827,3.784,3.7958,3.7944,3.7929,3.7889,3.7978,3.8017,3.8034,3.7827,3.7826,3.7825,3.7825,0,0,3.711,3.7225,3.7248,3.7291,3.7381,3.7448,3.7537,3.7625,3.767,3.774,3.7813,3.793,3.7916,3.7967,3.7987,3.8043,3.8138,3.8021,3.8024,3.8038,3.8268,3.8276,3.8294,3.8138,3.8141,3.8144,3.8261,0,3.7226,3.7385,3.7416,3.7553,3.7632,3.7641,3.7718,3.778,3.7816,3.7887,3.7926,3.8006,3.7985,3.8015,3.8072,3.8114,3.8184,3.8107,3.8204,3.8207,3.8181,3.8315,3.8325,3.8432,3.8277,3.8279,3.8281,0,3.7382,3.7456,3.7601,3.7679,3.7713,3.7782,3.7864,3.7933,3.8003,3.8025,3.8082,3.8095,3.8186,3.8144,3.8268,3.8215,3.8257,3.8284,3.8288,3.8296,3.8247,3.8323,3.8467,3.8482,3.8306,3.8304,3.8302,0,3.7451,3.7588,3.7691,3.7729,3.7823,3.7871,3.7912,3.798,3.8031,3.8103,3.8135,3.8217,3.8261,3.8323,3.8356,3.8323,3.8477,3.8439,3.8495,3.8494,3.8525,3.8522,3.8674,3.8557,3.8557,3.8557,3.8556,0,3.7576,3.7663,3.7723,3.7787,3.7884,3.792,3.8015,3.8056,3.8116,3.8186,3.82,3.8265,3.8307,3.8378,3.8405,3.8502,3.8523,3.8541,3.8547,3.8538,3.8535,3.8564,3.8556,3.8561,3.856,3.8559,3.8559,0,3.7668,3.7712,3.7825,3.7906,3.7928,3.7996,3.8064,3.8125,3.8161,3.825,3.8273,3.8329,3.8413,3.8454,3.8558,3.8576,3.8685,3.8688,3.8661,3.8663,3.8716,3.8709,3.8889,3.8913,3.8784,3.8785,3.8786,0,3.7742,3.781,3.7898,3.7946,3.7989,3.8067,3.8118,3.8156,3.8209,3.8294,3.8344,3.8429,3.8499,3.8632,3.8682,3.8761,3.8763,3.8821,3.8775,3.8764,3.876,3.8754,3.876,3.8828,3.8829,3.883,3.8831,0,3.7869,3.7888,3.7962,3.8045,3.8106,3.8172,3.8237,3.8276,3.8324,3.8382,3.8469,3.8523,3.8629,3.8713,3.8796,3.8836,3.8841,3.8846,3.8862,3.8853,3.8833,3.8841,3.868,3.8841,3.884,3.8839,3.8838,3.8838,3.7953,3.8012,3.8083,3.8165,3.8218,3.8279,3.8339,3.8384,3.8457,3.8547,3.8565,3.8656,3.8723,3.8835,3.8879,3.895,3.8937,3.8962,3.8967,3.8972,3.8973,3.8825,3.8965,3.8965,3.8965,3.8965,3.8965,0,3.8077,3.8123,3.8199,3.8289,3.8354,3.8355,3.8427,3.848,3.856,3.8623,3.8692,3.879,3.8871,3.8927,3.9009,3.9054,3.9058,3.9074,3.9069,3.9078,3.8982,3.8958,3.9069,3.9069,3.9069,3.9069,3.9069,3.9069,3.8149,3.8249,3.8276,3.8402,3.8447,3.8537,3.8578,3.8633,3.8684,3.8793,3.8861,3.8897,3.8957,3.9043,3.9117,3.9131,3.9159,3.9174,3.9188,3.9096,3.9085,3.9074,3.9052,3.9181,3.9181,3.9278,3.9279,3.9279]},{"header":{"parameterUnit":"m.s-1","parameterCategory":1,"la1":30.2991,"la2":30.254,"lo1":-89.0895,"lo2":-89.0444,"dy":0.0017,"dx":0.0017,"nx":28,"ny":28,"refTime":"2026-02-25T03:00:00:Z","depth":0,"parameterNumber":3,"parameterNumberName":"V-component_of_WINDS"},"data":[0,0,0,0,0,0,0,0,0,0,0,0,0,0,0,0,0,0,0,0,0,0,0,0,0,0,0,0,0,0,0,0,0,0,0,0,0,0,0,0,0,0,0,0,0,0,0,0,0,0,0,0,0,0,0,0,0,0,5.6711,5.6714,0,5.6972,5.6975,5.6978,5.6986,5.6983,5.698,5.6977,5.7244,5.7254,5.7263,0,0,0,0,0,0,0,0,0,0,0,0,0,5.6218,5.6227,5.6711,5.6714,5.6718,5.6972,5.6976,5.6979,5.6987,5.6983,5.6979,5.6976,5.724,5.7252,5.7264,0,0,0,0,0,0,0,0,0,0,0,0,0,5.6451,5.623,5.6711,5.6752,5.6759,5.6971,5.6976,5.698,5.6988,5.6983,5.6978,5.6974,5.7236,5.7251,5.7266,5.7454,0,0,5.7312,5.7319,0,0,0,0,0,0,0,0,5.6438,5.6469,5.6743,5.675,5.6757,5.6942,5.6899,5.7139,5.6989,5.6901,5.6977,5.6971,5.7147,5.7169,5.7229,5.7467,5.7478,5.7313,5.7323,5.7329,5.7333,0,0,0,0,0,0,0,5.6421,5.6458,5.6814,5.6747,5.6756,5.6757,5.6785,5.6945,5.7047,5.6908,5.6909,5.694,5.715,5.7214,5.7235,5.7482,5.7313,5.7326,5.7336,5.7342,5.7887,5.7892,0,0,0,0,0,0,5.6397,5.6444,5.6806,5.6822,5.6582,5.677,5.6801,5.6887,5.7046,5.7065,5.6944,5.694,5.7191,5.7217,5.7244,5.7475,5.7329,5.7343,5.7352,5.7881,5.7888,5.7894,0,0,0,0,0,0,5.6387,5.6429,5.6796,5.6634,5.6681,5.6784,5.688,5.6895,5.6959,5.7073,5.7091,5.6991,5.7188,5.7223,5.7402,5.7484,5.735,5.7364,5.7875,5.7883,5.7891,5.7937,0,0,0,0,0,0,5.6372,5.6426,5.6499,5.6635,5.6689,5.695,5.6886,5.6904,5.6985,5.6982,5.7121,5.714,5.7187,5.7379,5.7417,5.7502,5.7375,5.7868,5.7879,5.7888,5.7929,5.7946,5.796,0,0,0,0,0,5.6355,5.6501,5.6502,5.6546,5.6783,5.6954,5.6985,5.7036,5.6992,5.7066,5.7139,5.7135,5.7469,5.7398,5.744,5.7531,5.7863,5.7876,5.7888,5.7922,5.7942,5.796,0,0,0,0,0,0,5.6372,5.652,5.6523,5.6718,5.6823,5.6955,5.705,5.7057,5.7177,5.7169,5.7227,5.7259,5.7436,5.7502,5.7419,5.7721,5.7661,5.7682,5.7672,5.7693,5.7708,5.7689,5.7388,0,0,0,0,0,5.6398,5.6525,5.6648,5.6808,5.6861,5.6947,5.7023,5.7054,5.7165,5.721,5.7296,5.7403,5.7532,5.7616,5.7741,5.7938,5.7968,5.8021,5.8037,5.805,5.8067,5.8175,5.82,5.7934,5.7934,5.7934,0,0,5.6454,5.6551,5.6628,5.6814,5.6899,5.7029,5.6984,5.7124,5.722,5.7231,5.7405,5.7471,5.7596,5.7784,5.7871,5.7844,5.8147,5.8065,5.8074,5.8086,5.819,5.8215,5.8238,5.7942,5.7941,5.7939,0,0,5.6623,5.6709,5.6852,5.6938,5.7067,5.7123,5.7157,5.7288,5.7333,5.7508,5.7518,5.7634,5.7855,5.7943,5.8016,5.8217,5.8218,5.8256,5.8339,5.8443,5.8464,5.8483,5.8554,5.8579,5.8273,5.8273,5.8273,0,5.6676,5.6872,5.6924,5.7064,5.7145,5.716,5.7305,5.7386,5.7549,5.7605,5.7572,5.7849,5.7934,5.8142,5.8191,5.825,5.8291,5.824,5.8457,5.8476,5.8495,5.8563,5.8589,5.8277,5.8276,5.8276,5.8276,0,5.6931,5.7067,5.7167,5.7324,5.7417,5.7558,5.763,5.7718,5.774,5.7799,5.7976,5.8078,5.8224,5.8275,5.8299,5.8487,5.8466,5.8445,5.8385,5.8523,5.8588,5.8615,5.8282,5.8281,5.828,5.8279,0,0,5.7118,5.7302,5.7337,5.7409,5.7552,5.7658,5.7799,5.7942,5.8015,5.8127,5.8247,5.8433,5.8414,5.8497,5.853,5.8622,5.8773,5.8589,5.8592,5.8619,5.8986,5.9001,5.9031,5.8774,5.8779,5.8783,5.8975,0,5.7302,5.7554,5.7604,5.7823,5.7949,5.7964,5.8087,5.8188,5.8247,5.8361,5.8426,5.8557,5.8521,5.8572,5.8663,5.8735,5.8847,5.8722,5.8885,5.8891,5.8854,5.9065,5.9082,5.9258,5.9001,5.9005,5.9009,0,5.755,5.7668,5.7899,5.8025,5.808,5.819,5.8323,5.8433,5.8547,5.8583,5.8676,5.8698,5.8845,5.8778,5.8981,5.8894,5.8964,5.9009,5.9017,5.9034,5.8958,5.9087,5.9316,5.9342,5.9049,5.9046,5.9043,0,5.7663,5.7879,5.8045,5.8106,5.8257,5.8334,5.84,5.851,5.8592,5.8708,5.8762,5.8894,5.8967,5.9068,5.9125,5.9071,5.9323,5.9261,5.9356,5.9355,5.9409,5.9405,5.9651,5.9454,5.9454,5.9453,5.9453,0,5.7862,5.8003,5.8098,5.82,5.8358,5.8413,5.8568,5.8633,5.8731,5.8845,5.8866,5.8973,5.9042,5.9159,5.9204,5.9364,5.9397,5.943,5.944,5.9428,5.9424,5.9475,5.9464,5.946,5.9459,5.9457,5.9456,0,5.8015,5.8084,5.8266,5.8394,5.8429,5.854,5.8649,5.8748,5.8806,5.8951,5.8988,5.9079,5.9217,5.9284,5.9456,5.9486,5.9668,5.967,5.9629,5.9633,5.9725,5.9715,6.0012,6.0054,5.9829,5.9831,5.9833,0,5.8138,5.8247,5.8386,5.8464,5.8532,5.8658,5.8742,5.8801,5.8887,5.9024,5.9107,5.9246,5.9361,5.958,5.9661,5.9792,5.9798,5.9893,5.9818,5.9802,5.9799,5.9792,5.9803,5.9907,5.9909,5.991,5.9912,0,5.8349,5.8377,5.8497,5.8629,5.8728,5.8835,5.894,5.9003,5.9078,5.9174,5.9315,5.9404,5.9579,5.9716,5.9853,5.992,5.9929,5.9935,5.9964,5.9953,5.9924,5.994,5.9666,5.9928,5.9926,5.9925,5.9924,5.9924,5.849,5.8587,5.87,5.8833,5.8918,5.9015,5.9114,5.9185,5.9304,5.9451,5.9478,5.9628,5.9738,5.9922,5.9994,6.0112,6.0091,6.0133,6.0143,6.0153,6.0157,5.9905,6.0137,6.0137,6.0136,6.0136,6.0136,0,5.8702,5.8775,5.8896,5.9042,5.9146,5.9145,5.9261,5.9348,5.948,5.9582,5.9694,5.9856,5.999,6.0081,6.0216,6.0292,6.0299,6.0326,6.0321,6.0336,6.0169,6.013,6.0317,6.0317,6.0317,6.0317,6.0317,6.0317,5.8824,5.8988,5.9029,5.9235,5.9307,5.9455,5.9521,5.961,5.9692,5.9872,5.9983,6.0041,6.0139,6.0281,6.0403,6.0426,6.0475,6.0502,6.0524,6.0367,6.0348,6.033,6.0293,6.0512,6.0512,6.0681,6.0683,6.0684]}]]